Location: St. Louis
(38.6270°N, 90.1994°W)
Time: 05:57:08
(UTC-06:00)

Vanguard 2 Rocket - Pass Details

Date: 02 December 2021
Orbit: 554 x 3325 km, 32.9° (Epoch: 21 January)

Event Time Altitude Azimuth Distance (km) Brightness Sun altitude
Exits shadow 01:50:36 12° 170° (S) 6,104 10.9 -59.4°
Drops below altitude 10° 01:51:46 10° 168° (SSE) 6,272 11.0 -59.2°
Sets 01:57:53 0° 157° (SSE) 7,207 11.5 -58.1°
